Regional Weather Roundup
Issued by NWS

Home | Current Version | Previous Version | Graphics & Text | Print | Product List | Glossary On
Versions: 1 2 3 4 5 6 7 8 9 10 11 12 13 14 15 16 17 18 19 20 21 22 23 24 25 26 27 28 29 30 31 32 33 34 35 36 37 38 39 40 41 42 43 44 45 46 47 48 49 50
816
ASUS44 KJAN 300103
RWRMS

MISSISSIPPI HOURLY WEATHER ROUNDUP
NATIONAL WEATHER SERVICE JACKSON MS
800 PM CDT MON SEP 29 2014

NOTE: "FAIR: INDICATES FEW OR NO CLOUDS BELOW 12,000 FEET WITH NO
SIGNIFICANT WEATHER AND/OR OBSTRUCTIONS TO VISIBILITY.

MSZ001>002-007>008-010>013-018>021-025>028-034>036-300200-
NORTHWEST MISSISSIPPI

CITY           SKY/WX    TMP DP  RH WIND       PRES   REMARKS
CLARKSDALE     FAIR      73  61  64 CALM      29.93S
CLEVELAND      FAIR      75  62  64 NE3       29.91R
GREENWOOD      CLEAR     70  65  84 CALM      29.91R
GREENVILLE     CLEAR     76  58  53 N5        29.90S
GRENADA        FAIR      68  63  83 N6        29.92R
OLIVE BRANCH   CLEAR     72  66  83 CALM      29.94S
OXFORD         FAIR      68  64  88 CALM      29.95R
TUNICA         CLEAR     72  61  68 CALM      29.93S
$$

MSZ003>006-009-014>017-022>024-029>033-037>039-300200-
NORTHEAST MISSISSIPPI

CITY           SKY/WX    TMP DP  RH WIND       PRES   REMARKS
COLUMBUS AFB   CLEAR     74  64  69 N5        29.91R
CORINTH          N/A     68  61  77 CALM      29.93S
GOLDN TRIANGLE CLEAR     79  63  57 N6        29.90R
STARKVILLE     FAIR      70  63  78 CALM      29.91R
TUPELO         CLEAR     74  62  66 CALM      29.92R
$$

MSZ040-058-300200-
CENTRAL MISSISSIPPI

CITY           SKY/WX    TMP DP  RH WIND       PRES   REMARKS
JACKSON INTL   PTCLDY    76  67  73 CALM      29.90R
JACKSON HAWKNS PTCLDY    80  66  62 CALM      29.90S
MERIDIAN KEY   CLOUDY    74  68  81 CALM      29.90R
MERIDIAN NAS   MOCLDY    79  65  62 CALM      29.90R
RAYMOND        FAIR      73  68  83 CALM      29.90R
VICKSBURG      CLEAR     73  68  84 CALM      29.89R
$$

MSZ059>079-300200-
SOUTH MISSISSIPPI

CITY           SKY/WX    TMP DP  RH WIND       PRES   REMARKS
BROOKHAVEN     FAIR      73  70  88 CALM      29.92R
COLUMBIA       MOCLDY    73  72  94 CALM      29.88R
HATTIESBURG    CLOUDY    77  72  84 S3        29.89R
MCCOMB         CLEAR     78  70  76 CALM      29.90R
NATCHEZ        CLOUDY    75  72  88 CALM      29.90S
PINE BELT      CLEAR     73  70  88 CALM      29.91R
$$

MSZ080>082-300200-
COASTAL MISSISSIPPI

CITY           SKY/WX    TMP DP  RH WIND       PRES   REMARKS
BAY ST LOUIS   PTCLDY    75  70  83 CALM      29.88R
BILOXI         PTCLDY    78  73  82 NE3       29.88R
PASCAGOULA     CLOUDY    76  72  87 CALM      29.88R
GULFPORT       MOCLDY    80  71  74 CALM      29.87R
$$



USA.gov is the U.S. government's official web portal to all federal, state and local government web resources and services.